Theta_e
303 312 307 303 303 303 303 304 305 306 304 303 303 302 302 302 300 300 299 298 297 296 297 296 294 294 294 294 294 294 295 297 298 300 301 303 304 305 307 308 310 310 308 316
309 312 303 302 303 303 304 305 305 304 303 302 302 302 302 302 300 300 299 296 296 296 295 294 293 293 293 293 293 293 293 295 295 296 298 303 303 304 306 308 309 311 310 313
306 305 302 302 303 303 304 304 301 302 302 302 302 302 303 302 301 299 298 296 296 295 294 293 292 292 292 292 292 292 294 294 295 297 299 301 303 304 305 309 312 312 312 311
306 302 302 303 303 302 301 303 302 302 297 299 302 300 302 302 302 300 297 295 295 293 292 292 291 291 291 291 292 292 293 293 295 297 299 302 303 304 306 307 310 311 311 317
306 302 303 303 303 301 302 301 301 302 297 298 302 298 302 300 301 297 296 296 294 292 291 291 290 290 290 290 291 291 292 293 295 297 300 302 303 303 306 308 309 311 313 316
303 300 299 302 300 301 302 301 302 301 298 302 297 296 299 301 299 296 296 295 294 292 290 289 289 289 289 289 290 291 291 292 294 297 302 304 303 304 307 307 309 312 312 314
304 303 299 298 302 302 300 298 299 298 301 300 293 298 299 299 297 296 295 294 292 291 289 288 288 288 288 289 289 290 290 291 293 296 299 304 303 304 306 309 310 310 311 312
300 300 300 299 301 301 301 298 296 296 299 300 294 296 300 297 297 295 294 293 292 290 289 288 287 287 287 288 288 288 289 290 292 294 297 300 303 306 307 308 309 309 310 310
300 302 297 298 299 299 301 300 298 294 293 298 296 299 299 297 292 294 294 293 291 289 288 288 287 287 286 287 288 287 288 289 291 293 294 297 300 301 303 305 306 309 310 310
298 297 299 298 299 298 298 298 295 294 297 296 296 295 299 290 289 291 292 290 289 289 288 287 287 286 286 286 287 287 287 288 290 291 292 294 296 298 299 300 301 304 306 309
297 294 298 296 294 298 297 296 295 294 297 300 298 297 292 289 287 289 289 291 288 288 287 287 286 286 285 285 286 287 287 288 289 290 291 292 294 296 297 298 299 301 303 305
298 299 295 297 301 298 300 298 299 293 293 299 300 299 293 289 287 285 287 290 289 288 288 287 285 285 285 284 284 285 285 287 287 288 290 291 292 294 295 296 298 299 301 302
297 295 293 299 297 296 295 299 299 296 297 294 297 297 290 289 287 285 288 286 288 289 288 287 285 284 283 283 283 284 285 286 286 287 288 289 290 292 293 294 297 298 298 298
296 298 293 295 293 291 294 297 298 297 291 295 297 298 298 292 288 284 285 284 286 289 288 286 284 284 283 282 282 282 284 285 285 286 287 287 288 289 291 292 294 295 295 296
296 292 296 296 295 295 295 295 294 294 296 292 295 291 296 295 294 284 285 283 286 285 285 285 284 283 282 281 281 282 282 284 284 285 286 286 288 289 290 291 292 293 294 293
295 290 289 288 293 293 292 293 293 293 292 291 294 294 294 292 284 284 283 283 283 285 283 283 282 281 280 280 280 281 281 283 284 284 285 286 286 287 288 288 289 291 290 290
292 291 287 290 292 289 289 289 290 291 289 289 290 291 285 286 283 282 282 282 282 282 281 281 280 280 279 279 280 281 281 282 283 284 285 285 285 285 286 287 287 287 287 288
288 289 288 287 287 292 292 296 292 291 293 292 291 290 285 283 281 283 280 282 280 280 277 280 280 279 278 278 280 281 280 281 281 282 283 284 285 285 285 285 286 286 285 286
291 290 288 286 286 293 295 293 293 293 293 295 295 293 288 287 290 288 285 283 281 280 280 281 280 278 277 277 279 281 280 280 281 282 282 283 284 285 285 285 285 285 285 285
292 291 289 284 285 288 296 294 294 294 293 296 296 296 292 290 289 288 289 286 283 282 281 280 279 278 276 276 278 280 279 279 279 281 282 284 284 285 285 285 285 285 286 285
290 291 291 292 285 291 294 292 292 290 293 294 294 292 290 289 288 286 284 283 282 281 280 280 279 277 275 275 277 278 278 277 279 281 283 284 284 285 285 285 285 285 284 284
291 291 290 291 288 293 291 290 294 294 291 293 292 289 289 288 286 285 284 283 282 282 280 279 278 277 276 275 276 276 276 278 280 282 283 284 285 285 285 285 285 285 284 284
289 293 291 293 293 293 290 291 291 291 291 290 290 288 287 287 285 284 283 282 280 281 280 279 277 277 275 275 274 275 275 277 280 282 282 283 283 284 284 284 284 284 284 283
286 288 289 287 291 291 290 289 289 290 289 290 289 287 286 286 284 283 280 280 278 281 279 279 277 276 275 274 275 275 275 277 278 280 281 282 282 282 282 282 282 282 282 282
289 286 288 290 290 290 290 289 288 288 288 286 284 285 285 285 285 284 282 280 281 282 280 278 277 276 275 275 275 275 276 277 278 279 280 281 281 281 281 280 280 279 280 280
285 291 290 295 296 293 294 287 285 285 286 286 284 282 280 284 284 283 281 283 283 282 280 278 277 277 276 276 276 276 277 277 278 277 279 280 281 281 280 279 278 279 279 279
Wind_Speed
3 1 2 5 4 3 6 8 10 13 11 8 9 19 21 5 4 4 4 6 7 8 15 23 25 26 27 25 27 27 27 26 26 24 23 23 24 27 28 27 30 28 27 23
2 1 6 2 4 6 7 9 8 10 11 13 13 18 17 11 5 2 3 6 8 13 14 18 22 22 24 25 26 27 28 28 31 32 29 25 24 27 29 26 28 27 26 24
0 4 2 0 3 5 6 5 5 11 15 8 7 8 5 5 4 4 4 6 10 14 17 15 19 22 23 25 26 27 26 28 28 28 31 29 25 27 28 17 21 21 20 24
3 4 1 4 3 4 4 8 12 13 5 3 6 4 7 9 7 7 4 8 13 13 14 12 17 19 23 26 26 27 26 30 28 28 27 29 23 20 23 20 19 21 21 20
1 3 2 1 1 3 8 12 15 7 2 4 2 1 4 7 3 5 9 15 13 14 15 17 18 24 24 25 26 26 26 30 29 28 30 28 24 24 25 24 20 23 18 17
4 1 2 4 7 3 9 7 10 3 2 3 2 3 5 2 2 8 13 15 15 17 16 16 23 25 26 27 26 26 26 29 30 28 28 23 24 23 23 17 15 15 17 17
2 1 2 2 4 4 7 6 4 5 2 5 5 3 9 4 4 9 16 17 16 17 16 16 17 20 23 25 26 25 26 30 29 26 24 16 24 26 18 15 13 12 13 16
2 5 3 1 2 1 3 2 3 4 4 7 5 5 6 6 6 8 10 12 15 16 15 16 16 21 21 23 24 23 24 27 26 23 23 21 10 4 5 4 7 10 12 10
1 4 3 1 2 4 2 1 2 2 2 2 5 7 3 3 4 9 12 11 13 14 15 16 17 20 22 21 21 22 22 22 21 21 21 19 15 14 11 9 10 8 8 10
2 4 1 1 2 4 2 1 2 0 4 5 5 7 5 5 6 8 9 9 12 13 15 15 15 20 21 21 21 22 20 18 17 16 16 16 14 10 11 12 11 10 11 11
3 3 4 3 4 6 2 1 2 1 2 3 4 6 6 7 4 7 8 8 9 12 13 14 15 20 21 21 21 20 19 17 16 14 13 12 12 10 11 12 11 10 10 9
3 0 4 7 5 5 1 3 3 3 5 4 2 9 5 7 6 5 6 6 9 10 11 13 16 21 21 21 22 20 21 20 19 18 15 12 11 10 10 10 9 9 9 7
4 2 4 4 4 2 3 4 4 0 2 6 2 7 3 4 4 4 2 5 7 9 11 11 14 16 20 22 23 23 22 20 18 16 13 11 9 8 8 9 7 7 6 4
1 3 6 5 5 2 4 5 7 7 3 4 12 20 24 8 6 6 6 5 6 7 8 9 11 14 22 23 23 23 22 21 19 15 12 10 8 6 5 4 3 1 3 0
3 5 3 9 11 10 14 15 11 12 16 5 21 7 24 16 14 6 4 4 8 8 9 11 11 12 20 24 26 26 24 23 20 16 13 10 7 5 4 4 3 3 6 8
4 3 1 5 8 6 11 17 15 17 13 14 23 27 21 13 1 4 6 4 7 8 7 9 10 13 18 21 24 25 26 25 21 19 18 14 13 12 12 11 13 13 14 17
5 2 1 5 3 7 7 8 8 5 8 7 7 11 3 3 5 6 5 2 5 7 5 8 9 11 17 23 25 24 26 24 24 21 21 21 21 22 22 21 23 22 21 25
4 3 2 4 5 2 7 5 6 9 6 15 12 9 6 6 5 5 4 3 3 6 4 6 11 14 16 19 24 24 26 26 25 26 24 23 24 23 26 27 26 27 29 31
4 2 1 1 2 9 10 3 5 6 8 10 15 9 6 1 3 7 5 5 4 3 4 8 13 15 16 18 20 21 25 26 26 26 26 24 23 24 25 28 31 32 32 32
1 2 3 2 3 6 4 3 1 2 5 5 5 7 7 5 1 3 5 4 5 2 5 9 12 14 15 15 17 16 21 26 27 26 25 27 27 26 28 31 31 30 30 29
3 3 9 7 4 9 10 6 3 5 6 3 4 6 8 5 4 4 6 4 4 3 3 7 8 11 14 13 12 13 16 20 18 20 22 24 26 28 30 30 30 29 26 28
9 9 5 4 4 10 7 4 7 4 0 2 4 5 7 5 6 5 6 5 5 3 0 5 7 9 13 13 11 10 13 14 16 18 20 21 23 25 27 28 25 23 24 27
3 8 6 12 9 3 8 6 7 1 3 4 5 6 7 8 6 6 6 6 5 5 2 3 5 7 9 11 12 9 12 12 13 16 21 21 21 20 22 23 21 21 21 19
5 5 4 2 10 19 15 11 7 7 8 5 6 7 8 7 7 6 4 4 4 7 6 4 3 4 6 8 10 11 11 11 12 14 18 19 20 21 22 21 22 22 18 17
4 7 6 6 19 11 17 14 12 11 9 6 5 8 9 8 6 7 6 5 11 10 8 6 4 3 5 7 8 9 10 10 13 13 15 16 16 18 21 22 22 22 20 15
7 12 7 13 20 11 13 4 6 9 11 12 9 4 4 9 9 7 6 15 16 13 10 8 6 4 2 4 6 7 8 9 9 10 10 10 10 11 12 15 17 17 17 16
Wind_Direction
48 349 55 47 36 327 298 292 288 287 306 309 278 291 288 257 158 184 221 342 323 308 324 324 322 319 317 318 318 309 304 303 308 300 285 276 271 260 258 247 251 259 253 253
27 174 68 13 276 283 293 285 283 283 323 322 293 291 279 262 187 132 339 299 322 324 320 325 321 318 319 320 318 316 311 308 306 303 296 277 272 274 251 245 246 249 253 250
147 58 74 268 317 312 288 259 322 302 333 274 297 283 158 155 149 197 241 314 327 327 329 326 323 324 321 319 317 310 305 305 298 291 288 285 271 271 268 254 226 233 256 253
277 91 2 333 281 61 287 2 325 315 29 304 49 281 308 135 191 186 315 329 326 335 326 322 326 325 328 318 314 313 307 307 301 292 282 275 257 262 254 249 245 251 247 252
36 345 351 241 258 36 248 321 291 290 91 345 182 77 257 149 210 348 334 329 327 337 332 333 330 328 323 321 318 311 311 310 307 298 288 265 250 251 262 238 236 230 236 252
245 86 255 316 313 275 317 304 306 98 155 257 193 79 265 225 296 326 335 326 337 338 338 329 327 330 326 324 320 318 315 318 316 313 324 237 248 253 246 256 250 231 228 245
225 192 123 269 303 114 20 360 334 347 253 242 218 306 251 151 32 2 333 330 341 338 334 329 329 329 324 322 322 322 321 323 319 323 337 298 246 250 246 234 235 252 255 256
29 320 179 247 59 114 39 65 127 279 309 298 227 237 261 141 49 2 326 331 335 331 331 327 326 323 320 317 318 323 323 323 322 328 339 350 0 339 250 294 279 256 245 254
330 262 123 359 36 110 130 256 28 267 237 308 239 275 64 91 349 346 338 337 329 329 330 327 326 322 320 321 320 322 320 324 327 337 344 345 342 345 338 317 324 306 284 268
100 305 76 156 147 72 144 113 14 265 306 296 290 287 245 306 318 315 319 328 329 325 329 330 330 326 323 325 322 320 321 319 326 342 339 336 330 317 299 301 297 299 290 270
126 121 267 137 196 169 141 232 247 130 205 275 304 264 200 199 234 274 294 329 331 326 329 331 331 330 332 334 333 330 331 330 335 336 329 323 315 315 293 288 291 299 284 274
154 272 265 229 114 39 97 233 162 138 270 237 253 269 165 183 211 225 282 336 324 323 329 332 334 336 340 341 339 342 338 340 337 331 327 323 318 313 301 294 294 291 288 274
174 230 321 332 7 89 215 207 198 46 21 225 226 264 219 237 247 226 336 307 314 321 332 334 340 343 344 342 342 343 342 341 337 336 335 333 330 324 314 311 302 280 281 298
266 255 198 211 211 112 258 207 209 180 200 256 238 276 281 269 322 314 321 300 319 312 330 336 344 343 343 343 343 344 345 348 348 352 359 357 353 340 339 328 314 302 244 34
210 233 261 262 269 267 263 262 230 225 226 211 270 265 279 296 302 272 257 313 325 323 347 342 345 346 341 342 345 349 350 356 1 7 17 17 28 39 60 74 103 114 122 119
189 263 91 282 251 259 272 258 235 230 240 258 261 275 282 279 16 308 273 32 315 316 337 335 341 348 340 340 344 349 351 355 8 15 23 36 51 70 80 93 103 109 105 110
156 207 72 266 340 309 303 244 179 200 188 168 192 235 210 285 260 259 267 91 289 311 323 337 333 345 337 338 342 351 356 4 13 18 29 44 56 63 71 80 83 82 82 90
142 155 123 270 358 310 241 203 175 198 223 216 261 254 218 217 239 252 213 179 279 301 323 328 326 336 344 349 357 3 13 16 17 20 25 42 59 64 68 71 73 74 73 73
151 186 304 211 247 288 293 157 169 175 282 216 227 248 220 180 289 277 165 167 185 243 298 320 337 343 356 357 1 10 24 20 21 18 23 33 52 65 67 67 65 67 69 68
215 324 155 100 190 238 262 169 95 119 294 191 194 210 173 150 340 265 161 154 137 130 336 352 351 350 7 5 7 12 26 29 14 14 29 42 45 56 63 66 66 70 73 74
161 188 219 219 257 280 256 166 173 86 243 173 186 171 154 191 198 163 131 144 138 137 336 1 5 4 358 9 18 25 27 28 31 41 54 61 54 59 64 70 71 73 72 75
175 167 194 184 205 274 149 74 177 216 247 214 209 188 181 171 149 161 182 169 166 168 353 354 15 11 3 16 29 29 32 23 41 57 62 65 71 70 72 75 76 69 69 71
256 197 186 192 209 218 208 221 221 226 214 211 202 203 178 168 194 185 198 193 183 190 193 314 353 6 14 20 30 36 23 30 41 61 62 61 60 65 69 70 65 67 73 72
254 173 229 83 246 241 237 248 247 223 223 220 215 190 181 179 181 191 182 178 187 204 219 255 307 350 11 31 30 30 27 39 49 58 60 58 62 64 61 65 69 67 62 61
192 140 208 264 267 287 274 245 230 226 209 193 208 189 194 168 189 183 186 193 216 215 214 238 255 302 353 13 33 40 42 48 52 58 62 63 69 72 75 69 69 72 68 73
183 224 215 251 258 230 251 231 194 198 213 209 178 205 200 173 187 175 190 200 208 205 206 217 235 259 318 359 22 36 48 59 71 69 81 77 76 74 75 79 78 67 67 66